Location: NJAA Observatory
(40.6819°N, 74.8979°W)
Time: 17:37:12
(UTC-04:00)

Cosmos 2263 Rocket - Visible Passes

Search period start: 17 September 2014 00:00
Search period end: 27 September 2014 00:00
Orbit: 826 x 847 km, 71.0° (Epoch: 16 September)

Date Brightness Start Highest point End Pass type
(mag) Time Alt. Az. Time Alt. Az. Time Alt. Az.
23 Sep 5.1 23:34:43 10° N 23:34:45 10° N 23:34:45 10° N visible
24 Sep 5.0 23:18:09 10° N 23:18:20 11° N 23:18:20 11° N visible
25 Sep 4.9 23:01:35 10° N 23:01:58 12° N 23:01:58 12° N visible
26 Sep 4.8 22:45:01 10° N 22:45:36 13° N 22:45:36 13° N visible
